User: anonymous   Login
Location: Aiyekoto
(8.4333°N, 4.3667°E)
Time: 03:25:37
(UTC+00:00)
Language:

ARIANE 5 DEB (SYLDA) - Orbit

View from above orbital plane
View from above orbital plane
View from above satellite
View from above satellite

Ground track
Ground track

The orbit data is extracted from the following two-line orbital elements,

1 32255U 07044D   20221.47541450 -.00000128 +00000-0 +23415-3 0  9999
2 32255 003.9179 156.2076 7174471 144.5907 013.5581 02.26299332106015
Epoch (UTC): 08 August 2020 11:24:35
Eccentricity: 0.7174471
inclination: 3.9179°
perigee height: 546 km
apogee height: 35710 km
right ascension of ascending node: 156.2076°
argument of perigee: 144.5907°
revolutions per day: 2.26299332
mean anomaly at epoch: 13.5581°
orbit number at epoch: 10601

The dashed part of the orbit path shows where the satellite is in the earth's shadow,  

DLR